Simultaneous Nadir Overpasses (SNOs) Predictions

Prediction of SNOs between GOES-15 and NOAA-20 Satellite Orbit:

Table of predicted SNOs for the next 14.0 days since TLE Epoch: 7/24/2020
Index Date Time (GOES-15) GOES-15 Lat,Lon NOAA-20 Lat,Lon Distance(km) Time Diff (sec)
1 07/24/2020 22:08:29 -0.01,-128.36 -0.64,-131.16 318.40 80
2 07/25/2020 21:52:23 -0.01,-128.37 0.36,-126.62 198.67 80
3 07/27/2020 10:14:11 0.01,-128.43 0.81,-131.89 395.24 80
4 07/28/2020 09:52:46 0.01,-128.43 -0.25,-127.37 121.38 80
5 07/29/2020 22:14:41 -0.01,-128.37 -0.95,-132.67 489.18 80
6 07/30/2020 21:58:36 -0.02,-128.37 0.05,-128.13 27.24 80
7 08/02/2020 10:01:38 0.02,-128.41 0.12,-128.87 51.41 80
8 08/03/2020 09:40:12 0.02,-128.41 -0.88,-124.33 464.56 80
9 08/04/2020 22:02:08 -0.02,-128.34 -0.31,-129.63 146.80 80
10 08/05/2020 21:46:02 -0.02,-128.34 0.69,-125.10 369.24 80
11 08/07/2020 10:07:49 0.02,-128.39 0.47,-130.37 225.74 80
